This demonstration page uses our WeatherBlox Daily Observations layout. Learn more.

Left ArrowRight Arrow

39.92423, -83.80882

Hourly Observations for February 7, 2016

Temp ( °F °C ) Dew Point ( °F °C ) Humidity (%) Winds ( mph kmh ) Pressure ( in mb ) Visibility ( mi km ) Precip ( " mm )
12:56 am 00:56 Clear 34 1.1 24 -4.4 67 67 S 7 11 30.22 1023 10 16 N/A
1:56 am 01:56 Clear 35 1.6 25 -3.8 68 68 S 8 13 30.19 1022 10 16 N/A
2:56 am 02:56 Clear 35 1.6 25 -3.8 68 68 S 8 13 30.18 1022 10 16 N/A
3:56 am 03:56 Clear 34 1.1 25 -3.8 70 70 SSW 7 11 30.16 1022 10 16 N/A
4:56 am 04:56 Clear 32 undefined 25 -3.8 76 76 S 8 13 30.14 1021 10 16 N/A
5:56 am 05:56 Clear 32 undefined 25 -3.8 76 76 S 8 13 30.13 1020 10 16 N/A
6:56 am 06:56 Clear 32 undefined 25 -3.8 76 76 S 9 15 30.11 1020 10 16 N/A
7:56 am 07:56 Sunny 33 0.5 25 -3.8 73 73 S 9 15 30.11 1020 10 16 N/A
8:56 am 08:56 Sunny 36 2.2 26 -3.3 67 67 S 8 13 30.11 1020 10 16 N/A
9:56 am 09:56 Sunny 39 3.8 26 -3.3 60 60 S 13 20 30.08 1019 10 16 N/A
10:56 am 10:56 Sunny 42 5.5 28 -2.2 58 58 S 12 19 30.07 1018 10 16 N/A
11:56 am 11:56 Sunny 46 7.7 28 -2.2 50 50 S 10 17 30.05 1018 10 16 N/A
12:56 pm 12:56 Sunny 48 8.8 28 -2.2 46 46 S 14 22 30.01 1016 10 16 N/A
1:56 pm 13:56 Sunny 50 10 28 -2.2 43 43 SSW 16 26 29.96 1015 10 16 N/A
2:56 pm 14:56 Sunny 52 11.1 27 -2.7 38 38 SSW 20 31 29.91 1013 10 16 N/A
3:56 pm 15:56 Sunny 51 10.5 26 -3.3 38 38 S 17 28 29.90 1013 10 16 N/A
4:56 pm 16:56 Sunny 50 10 25 -3.8 38 38 S 14 22 29.89 1012 10 16 N/A
5:56 pm 17:56 Sunny 47 8.3 24 -4.4 41 41 SSW 10 17 29.88 1012 10 16 N/A
6:56 pm 18:56 Partly Cloudy 44 6.6 25 -3.8 48 48 S 7 11 29.88 1012 10 16 N/A
7:56 pm 19:56 Cloudy 45 7.2 24 -4.4 44 44 S 7 11 29.87 1011 10 16 N/A
8:56 pm 20:56 Clear 45 7.2 24 -4.4 44 44 S 8 13 29.84 1011 10 16 N/A
9:56 pm 21:56 Partly Cloudy 42 5.5 27 -2.7 56 56 SSE 8 13 29.83 1010 10 16 N/A
10:56 pm 22:56 Mostly Cloudy 42 5.5 26 -3.3 53 53 S 9 15 29.80 1009 10 16 N/A
11:56 pm 23:56 Mostly Cloudy 44 6.6 28 -2.2 54 54 S 7 11 29.77 1008 10 16 N/A

Powered by AerisWeather